Date,TemperatureHighF,TemperatureAvgF,TemperatureLowF,DewpointHighF,DewpointAvgF,DewpointLowF,HumidityHigh,HumidityAvg,HumidityLow,PressureMaxIn,PressureMinIn,WindSpeedMaxMPH,WindSpeedAvgMPH,GustSpeedMaxMPH,PrecipitationSumIn
2014-1-1,68.9,66.5,63.7,68.6,64.6,58.4,100,94,72,30.13,29.94,6,0,11,0.14
2014-1-2,83.2,72.2,65.8,71.2,67.0,63.9,100,86,56,29.94,29.71,19,3,27,0.27
2014-1-3,68.1,51.4,46.0,66.8,42.0,28.2,98,71,48,30.13,29.79,18,5,29,0.00
2014-1-4,70.3,62.4,49.4,62.4,56.3,44.9,96,82,65,30.11,29.96,5,0,13,0.00
2014-1-5,80.7,69.0,60.4,69.3,65.4,59.2,100,89,61,29.97,29.85,5,0,12,0.16
2014-1-6,79.9,64.8,46.1,69.5,56.4,24.3,100,77,38,30.16,29.84,18,4,25,0.01
2014-1-7,48.0,42.4,37.0,36.8,29.5,19.5,88,61,40,30.30,30.16,17,5,25,0.00
2014-1-8,68.1,58.8,39.9,61.5,50.9,36.8,93,76,56,30.26,30.16,12,3,18,0.00
2014-1-9,70.6,68.5,65.5,68.9,65.0,59.9,96,89,80,30.18,30.09,10,3,19,0.11
2014-1-10,77.4,72.1,67.4,72.4,69.6,67.1,100,92,76,30.10,29.96,10,0,16,0.06
2014-1-11,82.8,75.0,69.3,72.7,69.7,66.7,100,85,65,29.99,29.81,19,4,28,0.05
2014-1-12,69.6,62.1,51.7,67.5,52.9,37.6,98,75,35,30.10,29.87,12,1,16,0.01
2014-1-13,77.9,64.4,47.1,68.3,59.0,46.2,100,84,64,30.07,29.89,9,0,13,0.00
2014-1-14,75.4,70.4,65.3,69.9,65.6,60.3,97,86,71,29.90,29.80,12,1,18,0.02
2014-1-15,65.6,60.1,54.5,62.2,53.0,46.5,93,78,59,29.93,29.82,8,1,14,0.00
2014-1-16,55.9,49.4,38.9,51.6,33.3,17.4,96,59,22,30.04,29.83,14,3,20,0.08
2014-1-17,65.8,47.9,33.1,38.0,30.2,18.7,89,58,17,30.11,29.99,1,0,6,0.00
2014-1-18,58.1,48.7,35.8,44.6,29.1,12.5,88,53,17,30.15,29.99,12,2,19,0.00
2014-1-19,68.8,49.7,29.5,46.8,36.5,25.9,92,65,30,30.13,30.00,12,1,17,0.00
2014-1-20,72.0,56.4,41.2,53.8,45.7,39.5,99,72,32,30.06,29.91,11,1,14,0.00
2014-1-21,74.6,61.4,50.7,58.1,53.5,48.4,99,77,47,29.93,29.69,16,3,24,0.00
2014-1-22,57.6,48.7,35.9,47.8,28.8,19.1,80,49,23,30.07,29.77,13,2,18,0.00
2014-1-23,61.0,47.9,35.0,43.8,36.3,26.6,84,66,39,30.24,30.07,10,1,13,0.00
2014-1-24,58.7,50.1,43.6,43.7,38.8,28.2,84,66,51,30.33,30.16,15,4,20,0.00
2014-1-25,70.9,56.4,43.1,54.1,48.1,39.0,88,75,54,30.14,29.91,12,1,20,0.00
2014-1-26,72.1,60.6,47.0,61.1,55.2,44.8,95,84,66,29.98,29.87,13,0,20,0.00
2014-1-27,79.6,67.8,57.3,63.5,60.6,55.5,97,80,55,29.91,29.81,13,2,19,0.00
2014-1-28,80.3,66.9,55.4,64.6,59.6,54.5,100,80,47,29.96,29.84,11,1,17,0.00
2014-1-29,66.0,58.2,51.0,62.2,55.5,49.8,100,91,80,30.05,29.87,16,3,21,0.88
2014-1-30,58.7,54.5,50.8,58.6,54.4,50.7,100,100,99,30.04,29.95,8,1,16,0.47
2014-1-31,68.6,62.5,55.7,68.5,62.4,55.6,100,100,100,30.01,29.92,8,0,10,1.95
2014-2-1,83.6,72.2,65.8,73.6,68.8,65.7,100,90,59,30.03,29.95,11,1,16,0.05
2014-2-2,80.9,71.3,62.1,72.6,67.1,62.0,100,88,57,30.05,29.95,13,1,18,0.01
2014-2-3,85.1,73.3,64.7,72.4,69.0,64.6,100,88,53,30.01,29.91,9,0,16,0.01
2014-2-4,80.3,73.7,69.8,72.5,69.9,67.9,99,89,73,30.03,29.93,13,2,19,0.05
2014-2-5,83.2,75.0,67.3,72.8,70.2,66.7,100,86,67,29.98,29.86,11,2,21,0.97
2014-2-6,68.3,65.4,56.7,61.9,60.2,55.4,96,84,78,30.04,29.95,13,4,19,0.05
2014-2-7,68.3,62.2,53.6,63.3,59.7,52.2,98,92,82,30.06,29.98,11,2,18,0.01
2014-2-8,74.0,63.6,59.3,66.6,61.2,57.8,100,92,76,30.01,29.94,9,1,17,0.00
2014-2-9,72.8,62.9,57.5,58.1,56.0,49.0,95,80,50,30.01,29.92,14,2,20,0.00
2014-2-10,74.4,62.6,52.6,58.2,53.3,50.8,98,75,44,30.00,29.92,7,0,13,0.01
2014-2-11,77.4,67.6,53.5,67.0,60.7,51.8,98,80,59,29.97,29.87,10,1,17,0.00
2014-2-12,80.1,68.0,56.9,67.8,61.6,55.7,100,82,56,29.92,29.61,16,2,35,0.92
2014-2-13,64.3,59.9,46.7,62.8,50.9,41.5,100,74,49,29.87,29.57,20,7,33,0.01
2014-2-14,66.1,51.3,38.8,46.3,41.7,33.1,97,74,31,29.98,29.84,7,1,11,0.00
2014-2-15,72.3,58.1,45.7,58.3,42.3,26.0,96,63,19,30.02,29.81,18,4,25,0.01
2014-2-16,69.9,55.0,41.9,50.2,41.4,26.0,93,65,20,30.08,29.99,12,1,12,0.00
2014-2-17,74.7,59.2,43.3,57.3,46.9,38.0,98,70,27,30.13,30.05,8,0,10,0.00
2014-2-18,81.2,64.6,50.7,62.1,55.3,44.9,100,76,29,30.13,30.04,11,1,13,0.01
2014-2-19,80.3,66.6,53.5,71.2,60.3,52.3,99,82,50,30.08,29.97,13,1,19,0.00
2014-2-20,79.4,70.4,57.8,68.9,64.4,57.2,100,83,64,30.07,29.97,16,3,20,0.01
2014-2-21,83.6,73.6,67.8,72.6,68.5,66.0,98,85,59,29.98,29.87,17,2,25,0.08
2014-2-22,80.1,70.9,66.6,71.9,68.3,65.4,99,92,68,30.00,29.90,18,1,20,0.66
2014-2-23,84.3,71.3,63.9,71.2,66.5,63.3,100,87,52,29.98,29.86,7,0,12,0.76
2014-2-24,79.9,69.1,64.3,69.0,65.0,62.3,100,88,56,29.95,29.84,7,0,14,0.00
2014-2-25,79.6,68.8,62.3,65.3,62.8,60.5,100,83,53,29.93,29.82,10,0,11,0.01
2014-2-26,80.7,67.6,56.9,66.3,61.3,56.6,100,83,48,29.86,29.61,14,1,16,0.03
2014-2-27,65.5,60.5,54.4,65.2,56.9,51.4,99,88,74,29.86,29.65,10,1,17,0.03
2014-2-28,71.6,60.0,50.5,55.2,50.9,43.5,94,74,49,29.98,29.81,12,1,13,0.00
2014-3-1,76.1,63.3,51.9,60.2,55.6,49.7,99,79,40,30.08,29.96,13,2,18,0.01
2014-3-2,78.5,66.8,54.1,63.6,59.0,53.5,100,79,49,30.09,29.95,8,0,13,0.00
2014-3-3,84.3,71.3,58.7,61.8,57.3,51.9,96,66,34,29.97,29.84,13,1,17,0.00
2014-3-4,78.3,67.5,57.0,66.4,60.5,55.2,99,80,55,29.95,29.86,10,1,12,0.00
2014-3-5,75.6,66.5,61.5,67.3,63.2,61.4,100,90,70,29.94,29.85,11,2,14,0.00
2014-3-6,74.4,68.8,64.7,71.5,66.7,62.7,98,93,84,29.92,29.59,10,0,10,0.08
2014-3-7,70.6,62.7,49.4,64.6,55.4,42.4,100,79,53,29.96,29.65,19,4,25,0.07
2014-3-8,69.3,58.4,47.1,57.2,50.9,41.5,94,77,62,30.04,29.93,10,1,15,0.00
2014-3-9,75.6,63.7,52.0,58.6,54.4,51.4,100,75,44,30.09,29.98,6,0,11,0.01
2014-3-10,81.6,65.9,55.3,62.6,57.5,53.4,98,77,39,30.02,29.86,9,0,13,0.00
2014-3-11,80.5,66.9,53.1,65.0,55.7,38.0,98,73,23,29.90,29.73,13,1,13,0.00
2014-3-12,80.7,71.1,65.6,70.9,63.8,60.0,93,78,59,29.75,29.62,16,3,27,0.25
2014-3-13,67.9,60.6,52.2,61.5,44.7,32.2,86,58,28,30.10,29.72,19,3,21,0.00
2014-3-14,71.3,60.8,48.0,52.6,47.3,39.7,87,63,45,30.16,30.07,12,1,16,0.00
2014-3-15,77.0,63.9,50.4,60.2,53.9,48.7,97,73,48,30.09,29.95,12,1,14,0.00
2014-3-16,83.2,70.9,56.5,64.6,58.5,54.2,99,69,40,29.94,29.67,18,3,25,0.00
2014-3-17,79.8,74.6,68.8,70.0,67.6,62.3,91,79,68,29.69,29.57,19,4,24,0.05
2014-3-18,75.8,68.8,62.1,71.2,60.9,47.7,94,78,38,29.92,29.49,19,5,24,0.44
2014-3-19,76.0,65.2,55.9,61.4,58.4,55.3,99,81,51,30.00,29.90,10,1,13,0.01
2014-3-20,75.6,68.7,59.6,63.5,61.2,57.5,97,79,56,29.97,29.87,12,2,15,0.00
2014-3-21,78.1,71.3,64.5,64.8,61.6,55.3,96,73,47,29.99,29.90,12,2,17,0.00
2014-3-22,85.5,75.2,67.4,69.2,62.5,50.9,95,68,32,29.96,29.83,12,2,20,0.06
2014-3-23,83.4,72.6,61.5,66.8,61.8,56.6,88,70,54,29.94,29.82,14,1,14,0.00
2014-3-24,77.7,69.5,64.5,67.0,63.8,59.7,98,83,56,29.94,29.79,6,0,8,0.19
2014-3-25,75.1,67.5,58.6,64.9,58.6,41.3,99,76,45,29.89,29.71,16,4,21,0.04
2014-3-26,59.5,53.6,44.8,44.0,36.1,23.0,76,52,38,30.18,29.89,19,4,20,0.00
2014-3-27,67.1,61.1,48.8,60.0,53.6,43.6,90,77,61,30.22,30.10,10,1,11,0.03
2014-3-28,77.2,72.1,62.3,65.5,63.2,58.7,90,74,65,30.11,29.93,17,3,22,0.00
2014-3-29,81.6,71.7,65.6,72.5,67.1,62.6,98,86,69,29.96,29.74,24,3,24,0.83
2014-3-30,75.6,66.4,56.7,65.1,49.7,33.8,94,61,22,29.96,29.79,14,2,17,0.00
2014-3-31,76.0,62.0,49.6,52.0,48.7,43.1,96,66,35,30.05,29.96,5,0,7,0.00
2014-4-1,78.5,63.4,45.8,66.6,53.1,44.4,99,73,41,30.08,30.00,6,0,12,0.00
2014-4-2,79.8,66.0,50.8,60.5,56.1,49.8,100,74,44,30.08,30.02,12,1,14,0.00
2014-4-3,80.9,69.3,55.9,69.3,61.0,55.0,100,77,52,30.06,29.94,12,1,18,0.00
2014-4-4,83.6,71.9,57.8,65.9,62.4,56.3,97,74,46,29.96,29.88,7,1,14,0.00
2014-4-5,81.6,72.7,64.2,67.8,64.8,61.0,97,78,52,29.95,29.84,7,0,11,0.00
2014-4-6,85.9,75.2,67.9,68.8,65.4,57.3,94,74,39,29.92,29.82,19,2,19,0.00
2014-4-7,89.3,77.1,66.8,71.4,66.4,62.2,94,73,43,29.86,29.70,19,3,21,0.09
2014-4-8,79.9,73.0,64.8,74.8,69.6,59.7,97,89,78,29.77,29.58,17,4,21,0.46
2014-4-9,75.3,64.8,55.6,60.0,52.5,44.7,92,67,35,30.06,29.75,14,2,18,0.00
2014-4-10,76.5,65.4,53.5,57.6,53.1,48.4,94,67,40,30.17,30.06,8,1,14,0.00
2014-4-11,76.5,69.6,59.2,68.0,61.0,49.8,92,75,62,30.15,30.05,14,2,18,0.29
2014-4-12,78.8,71.4,62.7,65.5,60.3,55.0,96,71,45,30.10,30.01,15,2,17,0.00
2014-4-13,80.3,74.1,69.4,66.9,64.3,61.7,90,72,57,30.04,29.93,18,3,18,0.00
2014-4-14,83.0,76.5,69.8,72.8,69.4,65.9,93,79,66,29.92,29.76,10,1,15,0.00
2014-4-15,87.6,76.4,68.9,72.9,69.7,65.6,98,82,51,29.81,29.66,18,3,25,0.74
2014-4-16,74.4,67.2,55.9,67.1,58.7,49.8,88,75,63,30.02,29.81,14,5,20,0.00
2014-4-17,75.1,72.7,69.6,68.5,65.9,61.5,90,80,72,30.09,29.97,17,5,20,0.04
2014-4-18,82.4,74.6,68.6,72.9,69.1,63.1,98,84,54,30.03,29.82,17,2,17,0.73
2014-4-19,79.6,72.8,62.9,71.7,64.9,57.4,100,78,52,29.86,29.75,14,3,18,0.30
2014-4-20,72.1,65.0,60.2,61.4,58.5,55.0,95,80,64,29.95,29.82,13,3,16,0.00
2014-4-21,74.4,66.7,59.5,62.2,59.7,57.2,94,79,63,29.95,29.84,12,2,16,0.00
2014-4-22,81.4,68.6,57.3,63.1,60.5,57.0,100,78,47,29.87,29.72,7,0,11,0.01
2014-4-23,83.2,71.2,59.3,64.9,61.9,57.7,97,75,46,29.84,29.75,8,0,10,0.00
2014-4-24,83.2,73.8,62.1,69.1,65.4,60.8,98,77,54,29.91,29.81,16,1,18,0.00
2014-4-25,88.2,74.7,64.0,67.6,65.1,59.0,96,75,40,29.91,29.80,13,0,13,0.00
2014-4-26,83.4,73.3,62.4,70.3,66.7,61.2,99,81,55,29.91,29.83,12,1,17,0.00
2014-4-27,84.7,76.1,66.6,72.7,69.2,65.7,100,81,59,29.91,29.83,11,1,16,0.00
2014-4-28,88.0,77.9,68.6,72.3,69.3,64.3,98,77,47,29.87,29.78,9,1,17,0.00
2014-4-29,87.2,78.4,71.3,74.9,72.0,67.8,97,82,59,29.92,29.77,12,1,17,0.03
2014-4-30,87.6,77.7,70.9,74.7,71.8,65.7,98,84,55,29.97,29.85,10,1,17,0.42
2014-5-1,90.7,77.7,68.3,75.2,71.2,64.7,100,83,43,29.93,29.79,13,1,17,1.14
2014-5-2,84.7,74.2,68.8,73.7,70.5,67.9,100,90,59,29.87,29.77,16,2,19,1.15
2014-5-3,74.0,70.6,64.8,73.6,70.0,64.7,100,98,90,29.90,29.78,5,0,7,0.97
2014-5-4,80.9,69.9,58.9,64.4,56.7,45.4,100,69,30,29.96,29.88,15,2,19,0.09
2014-5-5,86.5,72.1,57.6,63.2,58.1,51.0,99,67,31,29.96,29.87,6,0,13,0.00
2014-5-6,86.5,72.5,59.2,67.5,61.5,55.8,98,72,39,29.95,29.88,7,0,11,0.00
2014-5-7,84.7,74.9,62.9,71.9,66.5,61.6,100,77,52,30.05,29.92,12,1,17,0.00
2014-5-8,84.7,78.0,68.6,71.0,68.5,64.5,94,74,52,30.10,30.01,12,1,14,0.00
2014-5-9,85.1,77.8,70.3,71.0,69.1,66.7,93,76,59,30.09,29.99,14,2,17,0.00
2014-5-10,84.3,78.6,73.3,70.5,68.7,65.1,85,73,57,30.06,29.95,12,1,18,0.00
2014-5-11,85.1,77.5,71.5,71.5,68.6,66.1,93,75,55,30.05,29.96,10,1,14,0.00
2014-5-12,83.8,77.4,70.8,70.5,68.6,65.6,91,75,55,30.05,29.97,14,2,17,0.00
2014-5-13,83.0,78.4,75.1,73.7,70.4,67.8,92,77,64,29.99,29.92,12,3,18,0.00
2014-5-14,85.1,79.1,73.0,74.1,72.3,68.1,95,81,63,29.97,29.86,16,3,21,0.08
2014-5-15,85.9,77.4,71.8,74.7,73.3,70.0,99,88,60,29.92,29.79,13,1,22,0.80
2014-5-16,78.6,70.8,62.9,72.0,59.8,44.3,100,72,31,30.01,29.83,13,3,17,0.00
2014-5-17,78.3,69.8,58.6,60.2,56.7,51.4,96,66,42,30.05,29.98,18,4,25,0.00
2014-5-18,80.3,73.9,62.3,63.1,60.6,58.0,88,64,52,30.05,29.99,18,3,21,0.00
2014-5-19,82.2,74.2,62.6,66.8,63.1,59.6,92,70,52,30.07,30.00,11,1,14,0.00
2014-5-20,82.4,73.8,64.2,68.9,63.5,59.7,97,72,52,30.10,30.02,15,2,16,0.00
2014-5-21,82.6,73.5,63.1,66.2,61.5,58.9,93,68,49,30.09,30.02,8,0,12,0.00
2014-5-22,89.9,78.0,60.7,65.3,62.8,59.1,97,62,39,30.05,29.91,5,0,10,0.00
2014-5-23,92.5,79.9,69.3,70.9,65.5,61.3,81,63,39,29.99,29.89,8,1,10,0.00
2014-5-24,92.1,81.0,70.8,73.0,70.1,67.2,93,72,46,29.96,29.89,8,0,11,0.00
2014-5-25,89.7,80.7,71.6,74.5,71.2,65.5,94,74,47,30.02,29.91,10,1,12,0.00
2014-5-26,84.3,79.7,74.7,74.0,71.9,68.4,91,78,66,30.08,29.99,13,1,18,0.00
2014-5-27,84.0,77.1,69.6,72.6,68.9,67.4,94,77,59,30.05,29.95,10,1,14,0.00
2014-5-28,86.5,77.2,67.9,73.6,69.2,66.1,98,78,54,29.98,29.89,8,0,13,0.00
2014-5-29,87.2,78.1,69.6,74.2,70.5,68.4,97,79,56,29.95,29.87,13,0,17,0.00
2014-5-30,79.6,77.8,76.1,72.6,71.3,67.9,88,81,72,29.91,29.87,0,0,2,0.00
2014-5-31,84.1,77.2,70.6,76.2,71.6,68.6,96,84,66,29.94,29.87,8,0,14,0.50
2014-6-1,83.6,76.9,71.1,75.0,71.6,69.2,99,85,66,29.98,29.89,13,2,16,0.26
2014-6-2,82.0,77.6,74.9,71.4,66.0,61.3,84,68,59,30.02,29.93,14,3,18,0.02
2014-6-3,81.8,76.3,70.1,65.9,63.0,61.1,80,64,52,29.98,29.89,12,1,13,0.00
2014-6-4,83.4,74.7,66.6,67.7,63.0,60.0,94,69,48,29.90,29.83,7,0,12,0.00
2014-6-5,88.2,77.0,65.6,69.3,65.1,59.6,94,69,40,29.86,29.78,7,1,11,0.00
2014-6-6,91.4,80.2,69.4,72.3,68.8,65.6,91,70,45,29.88,29.78,9,1,10,0.00
2014-6-7,94.5,81.2,71.8,75.5,69.9,65.7,96,72,40,29.90,29.77,10,1,13,0.14
2014-6-8,91.2,78.9,69.1,73.3,70.0,67.7,99,77,50,29.89,29.78,8,0,11,0.00
2014-6-9,88.8,79.5,71.1,74.3,70.4,65.8,95,76,48,29.89,29.78,8,0,10,0.00
2014-6-10,93.6,79.6,72.3,74.3,70.7,64.0,96,76,46,29.91,29.84,12,0,18,0.00
2014-6-11,85.9,73.8,69.9,73.6,70.2,66.3,98,89,62,29.91,29.84,12,1,18,1.50
2014-6-12,89.7,74.2,67.9,72.3,68.7,63.3,98,85,47,29.91,29.81,19,1,20,0.66
2014-6-13,85.9,75.8,69.1,73.2,69.1,65.9,97,81,55,29.93,29.84,13,1,17,0.13
2014-6-14,88.2,74.1,70.1,71.8,69.4,67.0,97,87,52,30.00,29.87,17,1,21,0.13
2014-6-15,87.0,76.9,69.1,77.2,71.9,68.2,99,86,65,30.03,29.93,9,0,11,0.19
2014-6-16,87.8,77.2,69.6,73.7,70.4,68.2,96,81,61,30.06,29.96,5,0,10,0.00
2014-6-17,86.5,77.9,68.4,74.3,70.1,67.2,98,79,59,30.05,29.96,10,1,15,0.00
2014-6-18,86.5,77.4,70.8,75.6,71.2,69.3,99,82,58,30.02,29.96,13,1,18,0.02
2014-6-19,83.0,76.4,70.8,73.7,70.9,68.6,98,84,65,30.03,29.95,10,0,14,0.01
2014-6-20,89.3,75.4,70.9,74.3,71.2,69.0,97,88,55,29.97,29.87,12,0,12,1.86
2014-6-21,93.6,77.7,70.4,77.1,71.1,68.2,98,83,47,29.90,29.78,13,1,20,1.84
2014-6-22,92.7,80.4,70.8,75.6,72.1,67.8,99,79,45,29.87,29.79,11,1,13,0.00
2014-6-23,90.1,78.1,73.0,75.3,72.5,65.4,97,84,53,29.98,29.83,8,0,18,0.42
2014-6-24,92.9,79.4,71.8,75.4,72.5,70.3,100,82,49,30.03,29.95,15,0,15,0.06
2014-6-25,92.5,82.1,72.8,76.3,73.0,67.4,98,76,53,30.02,29.91,7,0,11,0.00
2014-6-26,93.2,81.4,70.9,74.8,71.5,68.2,96,74,47,29.99,29.85,25,1,25,0.43
2014-6-27,90.7,79.4,70.8,75.3,72.2,67.9,99,81,55,30.00,29.91,21,1,21,0.11
2014-6-28,93.8,80.7,70.8,74.6,71.8,68.6,98,77,48,30.03,29.93,8,0,11,0.00
2014-6-29,93.4,79.5,74.2,77.6,74.1,69.7,99,86,49,30.02,29.91,26,0,26,0.84
2014-6-30,88.4,80.7,73.9,77.7,74.6,72.0,100,83,61,29.94,29.80,18,3,24,0.02
2014-7-1,85.3,79.5,75.8,77.0,74.8,72.2,97,86,70,29.82,29.72,17,4,22,0.14
2014-7-2,87.2,79.2,74.0,74.5,72.8,68.7,96,82,61,29.83,29.72,10,2,17,0.03
2014-7-3,91.2,81.6,75.4,78.6,73.8,70.5,95,79,55,29.98,29.83,12,1,26,0.02
2014-7-4,92.9,78.7,72.7,75.6,72.3,68.1,99,83,45,30.02,29.94,16,1,20,2.19
2014-7-5,90.5,77.0,71.3,78.8,73.4,69.8,100,90,55,30.03,29.94,10,0,15,1.23
2014-7-6,88.8,76.1,72.7,77.2,73.0,69.7,100,91,59,30.00,29.92,10,0,24,0.31
2014-7-7,87.2,78.3,71.6,77.3,73.1,68.6,100,85,62,30.01,29.92,12,0,17,0.00
2014-7-8,91.6,78.3,70.6,78.2,73.2,66.7,100,86,54,30.04,29.96,14,1,19,0.98
2014-7-9,90.7,77.9,71.3,75.9,72.4,69.3,100,85,54,30.04,29.95,9,0,12,0.07
2014-7-10,89.5,79.1,73.0,76.6,73.1,69.6,100,83,55,30.02,29.95,11,0,13,0.00
2014-7-11,89.5,80.0,72.5,78.8,73.5,66.8,98,82,60,30.04,29.95,16,0,16,0.28
2014-7-12,89.9,81.1,74.2,78.0,74.6,72.2,99,82,57,30.03,29.97,8,0,13,0.03
2014-7-13,89.3,81.2,74.9,77.4,74.9,73.1,98,82,65,30.01,29.95,5,0,8,0.00
2014-7-14,90.7,79.9,71.6,77.1,73.5,68.1,99,83,49,30.00,29.89,12,1,28,1.78
2014-7-15,88.8,76.7,72.8,76.4,73.5,70.9,100,91,57,29.93,29.84,10,0,14,0.48
2014-7-16,90.1,76.5,72.7,75.6,73.9,71.5,99,93,58,29.92,29.81,13,1,22,1.50
2014-7-17,90.5,79.9,73.5,76.0,74.2,72.8,99,84,57,29.91,29.81,11,1,14,0.03
2014-7-18,90.7,82.0,74.2,77.4,75.0,71.1,100,81,56,29.98,29.88,6,0,12,0.00
2014-7-19,92.3,82.6,73.9,78.2,73.8,68.7,98,76,49,29.98,29.90,5,0,9,0.00
2014-7-20,92.9,82.1,75.8,78.9,74.6,72.5,98,79,52,29.96,29.89,9,0,16,0.33
2014-7-21,91.6,79.5,74.7,77.5,74.3,72.1,98,85,54,29.96,29.87,18,0,21,0.52
2014-7-22,90.5,78.4,73.5,78.2,74.1,71.5,99,88,57,29.96,29.88,7,0,15,0.68
2014-7-23,90.7,80.4,72.1,78.7,74.6,72.0,100,84,56,29.97,29.89,7,0,11,0.01
2014-7-24,93.4,81.6,75.3,76.8,74.6,71.6,96,81,51,29.94,29.85,11,1,13,0.58
2014-7-25,93.6,80.3,74.6,78.5,75.3,72.0,100,87,50,29.98,29.90,8,0,13,0.85
2014-7-26,95.4,79.9,70.9,77.9,74.1,69.2,100,85,44,30.01,29.89,13,1,27,0.89
2014-7-27,94.7,82.6,72.8,77.2,73.5,69.7,100,77,48,29.99,29.89,10,1,17,0.01
2014-7-28,94.5,83.5,76.1,79.8,74.4,71.3,96,76,48,29.95,29.84,13,1,20,0.25
2014-7-29,91.8,80.4,75.8,77.1,74.5,70.1,96,83,57,29.87,29.80,21,1,21,0.43
2014-7-30,92.9,82.1,75.1,77.2,74.4,70.0,99,80,49,29.87,29.80,5,0,11,0.01
2014-7-31,91.8,82.1,76.1,78.3,74.9,71.6,97,80,52,29.89,29.82,11,0,11,0.08
2014-8-1,92.9,82.0,74.9,76.8,74.3,70.2,97,79,48,29.89,29.81,10,1,14,0.00
2014-8-2,90.1,83.1,76.1,79.0,75.5,71.6,98,79,56,29.87,29.80,11,1,17,0.00
2014-8-3,91.4,81.2,76.1,78.4,76.4,73.6,98,86,59,29.84,29.75,8,0,13,1.21
2014-8-4,89.5,78.8,75.8,76.8,74.0,71.1,95,86,62,29.87,29.77,12,1,13,0.01
2014-8-5,90.5,80.4,75.1,77.0,74.4,69.5,98,83,60,29.95,29.82,5,0,12,0.00
2014-8-6,92.3,81.5,74.9,79.1,75.8,73.1,98,85,55,29.95,29.87,4,0,8,0.08
2014-8-7,93.2,79.1,74.6,79.2,75.5,72.2,100,90,57,29.92,29.84,11,0,12,0.75
2014-8-8,94.5,79.9,72.8,78.0,74.3,71.3,100,85,51,29.96,29.85,13,1,22,0.63
2014-8-9,92.5,79.9,73.5,79.0,74.2,70.0,100,84,51,29.97,29.89,10,0,14,0.06
2014-8-10,93.6,80.5,74.9,77.1,73.5,70.7,97,81,51,29.96,29.89,12,1,20,0.00
2014-8-11,90.3,80.0,73.9,76.2,72.8,68.4,97,80,57,29.94,29.87,11,0,21,0.00
2014-8-12,93.4,82.2,73.0,74.8,71.9,67.9,98,74,44,29.91,29.82,10,1,19,0.00
2014-8-13,94.0,81.6,74.9,76.7,74.4,71.2,97,80,50,29.92,29.84,8,1,18,0.05
2014-8-14,91.8,79.3,75.8,77.5,74.8,71.9,98,87,56,29.92,29.86,7,0,17,0.33
2014-8-15,89.5,76.9,72.7,79.2,74.3,70.4,100,93,62,29.94,29.86,13,1,16,1.48
2014-8-16,91.4,76.9,72.3,75.7,73.6,70.1,100,91,55,30.00,29.89,10,0,22,0.57
2014-8-17,90.5,80.9,72.5,77.9,75.2,72.4,100,84,59,30.02,29.92,11,0,11,0.01
2014-8-18,93.8,81.4,75.6,78.7,75.3,72.6,98,83,52,29.96,29.86,6,0,13,0.27
2014-8-19,96.1,83.8,74.6,77.5,74.4,68.1,97,76,41,29.93,29.85,7,0,9,0.00
2014-8-20,95.6,84.4,76.8,77.6,75.5,72.4,96,76,48,29.99,29.87,6,0,9,0.00
2014-8-21,93.2,83.5,77.2,78.6,75.3,71.8,98,78,54,30.01,29.93,5,0,12,0.00
2014-8-22,94.0,83.0,75.8,77.9,74.5,70.5,99,78,48,29.99,29.87,8,0,13,0.00
2014-8-23,94.7,83.7,74.2,77.5,73.6,70.6,98,74,46,29.89,29.75,6,0,10,0.00
2014-8-24,95.4,83.7,75.6,79.4,75.0,69.7,97,76,50,29.78,29.65,10,1,16,0.21
2014-8-25,86.7,82.4,78.6,78.6,75.0,70.8,97,79,67,29.74,29.65,22,6,25,0.10
2014-8-26,87.8,82.9,78.6,73.4,71.0,65.3,84,68,57,29.82,29.70,18,5,19,0.00
2014-8-27,90.3,81.9,74.6,75.6,72.2,66.7,98,74,49,29.89,29.79,12,1,16,0.00
2014-8-28,89.7,81.9,73.7,78.5,73.8,70.8,98,78,56,29.91,29.84,9,1,12,0.00
2014-8-29,91.6,80.9,72.8,77.6,73.6,70.6,97,80,54,30.01,29.88,11,1,18,0.47
2014-8-30,90.7,80.5,73.7,78.8,75.0,73.3,100,85,62,30.03,29.95,7,0,13,0.01
2014-8-31,90.5,83.0,78.1,79.6,73.9,70.3,88,75,54,30.02,29.95,11,0,16,0.00
2014-9-1,90.7,82.3,74.4,78.9,74.0,71.8,98,78,55,30.01,29.93,12,1,13,0.00
2014-9-2,89.9,81.7,74.9,81.2,73.2,70.9,96,77,56,29.98,29.88,13,1,13,0.00
2014-9-3,88.6,81.3,73.0,75.9,72.5,68.2,98,76,58,29.95,29.87,8,1,19,0.11
2014-9-4,88.4,78.7,72.8,74.5,72.2,69.8,96,82,56,30.00,29.92,7,0,12,0.00
2014-9-5,91.2,78.4,72.3,76.4,72.9,70.0,98,85,51,30.02,29.92,11,0,16,0.15
2014-9-6,88.8,75.5,71.8,78.6,72.6,65.3,100,92,65,29.96,29.85,12,0,13,0.29
2014-9-7,88.6,75.8,72.3,77.2,73.6,71.1,100,94,66,29.93,29.85,7,0,12,0.82
2014-9-8,89.7,78.7,71.3,78.7,73.8,70.4,100,87,59,29.96,29.87,8,0,10,0.01
2014-9-9,90.5,80.3,72.1,75.7,73.0,70.3,100,81,53,29.96,29.87,11,0,12,0.00
2014-9-10,88.6,81.1,73.9,77.6,73.3,70.9,98,79,58,29.93,29.85,12,0,13,0.00
2014-9-11,88.2,79.9,74.2,76.5,73.8,67.3,97,83,53,29.91,29.82,13,1,19,0.21
2014-9-12,87.6,81.8,77.7,76.6,74.5,72.8,93,79,64,29.90,29.81,13,1,14,0.02
2014-9-13,88.8,80.8,73.7,73.8,72.1,69.9,96,76,57,29.98,29.87,9,0,14,0.00
2014-9-14,88.4,79.0,72.8,74.0,71.4,66.3,98,79,51,30.04,29.95,10,1,12,0.28
2014-9-15,91.6,80.1,71.1,75.4,71.8,66.7,100,79,46,30.06,29.96,8,0,11,0.01
2014-9-16,92.1,80.9,72.8,76.9,72.3,68.0,93,77,48,30.01,29.85,7,0,13,0.01
2014-9-17,82.4,76.9,73.2,73.7,71.8,70.7,94,85,71,29.87,29.74,11,1,14,0.00
2014-9-18,89.0,79.1,72.1,75.3,72.6,69.0,100,82,53,29.83,29.76,10,0,14,0.00
2014-9-19,85.7,77.1,70.1,77.4,72.9,69.2,99,88,68,29.88,29.78,12,1,13,0.51
2014-9-20,76.8,73.8,70.8,75.6,73.0,70.5,100,98,90,29.86,29.75,12,0,12,1.33
2014-9-21,86.3,75.4,70.1,76.3,73.0,70.0,100,93,61,29.92,29.81,6,0,11,1.17
2014-9-22,86.5,75.3,70.6,76.0,72.6,69.7,100,92,65,29.93,29.83,11,0,11,0.99
2014-9-23,85.3,74.5,70.9,78.0,73.3,70.8,100,97,70,29.92,29.83,6,0,12,1.29
2014-9-24,79.4,75.4,72.0,76.4,73.7,71.1,100,95,80,29.99,29.87,11,0,18,0.82
2014-9-25,84.5,77.9,73.7,76.9,74.3,71.8,100,89,69,29.97,29.88,11,1,12,0.39
2014-9-26,89.3,77.8,72.3,76.6,74.5,71.2,100,91,65,29.91,29.84,9,0,13,0.25
2014-9-27,88.2,79.3,72.3,77.5,74.6,71.4,100,87,58,29.90,29.82,10,1,12,0.03
2014-9-28,88.4,79.9,73.7,79.7,74.5,70.6,100,85,64,29.90,29.81,10,1,12,0.24
2014-9-29,86.1,77.7,73.5,79.3,74.9,73.4,100,92,68,29.85,29.70,7,0,13,1.94
2014-9-30,88.4,77.6,73.0,77.3,74.3,72.0,100,91,62,29.75,29.69,8,0,14,0.08
2014-10-1,88.2,78.5,73.2,77.9,74.9,72.7,100,90,66,29.86,29.73,8,0,14,0.74
2014-10-2,87.4,80.2,75.3,80.8,74.9,72.6,100,85,64,29.93,29.82,10,1,10,0.01
2014-10-3,90.1,79.6,73.2,78.4,74.0,71.8,99,84,56,29.92,29.81,6,0,16,0.15
2014-10-4,84.7,77.7,69.8,76.9,72.7,61.5,100,86,64,29.83,29.68,17,1,17,0.01
2014-10-5,78.6,69.4,60.7,60.7,57.7,53.9,87,68,49,29.92,29.79,11,1,17,0.00
2014-10-6,82.4,71.9,61.3,65.7,62.1,58.9,93,73,51,29.97,29.89,5,0,13,0.00
2014-10-7,85.7,75.8,67.3,71.9,68.1,65.0,98,79,54,29.99,29.91,3,0,8,0.00
2014-10-8,85.9,78.3,72.5,74.2,71.2,68.4,95,80,57,30.02,29.93,8,0,11,0.00
2014-10-9,85.3,76.9,67.8,74.6,69.1,66.9,100,79,59,29.99,29.91,13,1,15,0.00
2014-10-10,85.7,78.9,69.4,72.1,70.0,67.4,97,75,60,29.96,29.87,12,1,13,0.00
2014-10-11,87.6,79.6,71.5,74.0,70.1,64.6,97,74,48,29.94,29.86,11,0,12,0.00
2014-10-12,86.1,78.1,68.1,74.2,69.2,66.8,97,76,57,29.96,29.89,10,0,12,0.00
2014-10-13,85.5,80.1,73.5,71.2,69.0,65.6,83,70,54,29.99,29.91,12,1,16,0.00
2014-10-14,88.8,78.9,72.7,77.1,72.6,69.5,99,82,58,29.93,29.79,9,1,18,1.86
2014-10-15,85.7,76.6,70.4,76.9,72.4,63.5,100,88,66,29.88,29.77,8,0,12,0.13
2014-10-16,82.2,71.2,59.9,65.6,60.6,58.5,98,72,47,29.86,29.75,10,1,16,0.00
2014-10-17,80.3,69.3,59.5,62.5,59.8,56.9,94,74,49,29.88,29.79,9,1,10,0.00
2014-10-18,84.1,70.3,60.1,63.9,60.7,56.5,99,75,43,29.88,29.79,9,0,10,0.01
2014-10-19,81.6,70.5,57.8,67.2,62.9,56.9,100,79,49,29.92,29.84,11,1,11,0.01
2014-10-20,83.8,73.6,63.7,70.5,65.4,62.4,100,78,51,29.95,29.82,5,0,9,0.00
2014-10-21,77.7,70.6,67.8,72.9,67.8,65.9,97,91,81,29.86,29.81,0,0,0,0.00
2014-10-22,75.8,73.5,72.5,65.1,64.0,62.3,76,72,69,29.87,29.82,6,1,11,0.00
2014-10-23,79.6,73.2,63.7,62.3,59.2,53.2,80,62,50,29.88,29.81,11,1,13,0.00
2014-10-24,79.2,70.3,59.8,62.3,58.4,56.3,95,68,47,29.87,29.77,13,1,17,0.00
2014-10-25,78.6,70.6,62.3,63.2,60.5,56.4,89,72,54,29.87,29.79,8,1,16,0.00
2014-10-26,79.6,67.9,56.0,60.4,57.8,54.5,96,73,43,29.92,29.81,8,0,10,0.00
2014-10-27,81.8,68.2,56.6,65.4,60.4,55.7,100,79,48,30.00,29.89,9,0,12,0.01
2014-10-28,83.2,70.8,59.6,67.9,63.6,59.0,100,80,50,30.05,29.97,10,0,11,0.00
2014-10-29,85.3,71.2,60.2,70.1,62.8,59.6,100,78,43,30.00,29.87,3,0,9,0.01
2014-10-30,85.5,71.9,61.6,68.9,63.2,60.5,99,77,48,29.88,29.75,2,0,7,0.00
2014-10-31,80.7,70.8,61.2,69.3,61.2,48.6,100,75,38,29.77,29.64,10,1,13,0.24
2014-11-1,63.5,57.5,46.8,52.3,40.0,19.8,90,57,20,30.04,29.75,19,3,27,0.00
2014-11-2,65.5,53.0,42.6,46.1,41.0,36.2,89,66,37,30.18,30.04,10,1,13,0.00
2014-11-3,72.7,62.1,47.6,55.8,50.1,41.6,89,67,48,30.22,30.13,14,2,17,0.00
2014-11-4,78.8,72.6,66.9,61.9,57.8,53.0,72,60,48,30.19,30.07,13,2,19,0.00
2014-11-5,80.1,71.9,60.9,64.5,61.8,58.5,95,72,52,30.12,30.01,11,1,16,0.00
2014-11-6,82.8,71.2,62.3,67.7,63.4,60.9,98,79,49,30.03,29.85,3,0,8,0.00
2014-11-7,74.9,66.2,57.0,65.4,59.1,53.9,99,79,58,29.87,29.80,12,1,18,0.00
2014-11-8,78.6,67.2,56.0,67.8,61.7,53.9,96,84,63,29.85,29.72,7,0,10,0.04
2014-11-9,64.3,62.5,59.2,64.0,61.9,58.3,100,98,93,29.81,29.72,6,0,13,0.41
2014-11-10,73.9,65.7,61.6,66.4,62.3,53.4,100,89,73,29.83,29.75,10,2,14,0.00
2014-11-11,78.3,68.6,59.2,66.0,59.2,52.4,84,73,60,29.83,29.75,19,2,19,0.00
2014-11-12,78.5,67.0,57.0,61.1,57.1,51.7,92,72,48,29.93,29.82,12,1,13,0.00
2014-11-13,79.9,66.0,54.5,63.0,59.3,53.9,100,81,52,29.95,29.84,3,0,8,0.00
2014-11-14,66.0,63.1,59.6,65.5,60.5,54.2,100,92,78,30.02,29.87,6,0,10,0.01
2014-11-15,75.4,63.8,53.3,61.4,57.0,52.1,96,80,57,30.11,29.99,8,0,11,0.00
2014-11-16,79.6,68.4,55.0,69.2,63.7,54.7,100,86,64,30.09,29.94,9,1,12,0.01
2014-11-17,85.9,73.7,66.9,73.7,68.9,65.9,100,87,57,29.93,29.75,17,3,21,0.74
2014-11-18,68.8,55.1,47.4,68.7,51.9,36.1,100,90,63,30.15,29.83,14,2,18,0.09
2014-11-19,60.9,52.1,43.5,53.3,45.7,36.7,94,79,65,30.21,30.10,11,2,16,0.00
2014-11-20,67.3,57.8,49.9,54.3,51.1,48.9,98,80,55,30.15,30.05,14,2,17,0.01
2014-11-21,74.2,65.8,52.8,61.7,56.2,50.4,98,73,54,30.15,30.06,16,4,19,0.01
2014-11-22,73.7,72.0,69.6,68.8,65.4,55.5,95,80,59,30.13,29.99,14,4,17,0.07
2014-11-23,84.5,76.6,71.3,74.1,71.8,68.7,97,86,62,29.98,29.77,16,2,22,0.08
2014-11-24,86.1,77.7,73.0,75.4,72.5,70.2,100,85,62,29.92,29.80,13,1,20,0.00
2014-11-25,82.8,76.6,72.5,76.7,73.5,70.2,100,91,75,29.91,29.75,11,1,14,0.50
2014-11-26,75.8,60.2,47.6,74.2,57.8,45.9,100,92,74,30.09,29.76,16,2,26,1.00
2014-11-27,70.8,57.0,44.9,50.9,45.7,36.5,100,70,47,30.16,30.03,13,2,17,0.01
2014-11-28,62.0,53.4,46.1,46.5,43.3,36.1,84,69,53,30.18,30.10,14,2,17,0.00
2014-11-29,70.8,59.7,50.1,55.1,51.9,46.1,94,77,53,30.18,30.10,11,1,12,0.00
2014-11-30,75.6,65.1,53.3,62.7,57.6,52.1,100,79,53,30.21,30.13,11,1,13,0.00
2014-12-1,77.7,70.5,59.2,65.7,62.6,57.4,98,77,61,30.20,30.10,11,1,16,0.00
2014-12-2,77.0,70.1,65.2,69.2,66.0,63.7,97,88,66,30.12,30.02,10,1,16,0.40
2014-12-3,77.0,70.1,65.0,69.2,64.6,61.5,99,84,63,30.08,30.01,13,2,16,0.01
2014-12-4,77.9,70.3,65.3,69.0,65.8,63.6,98,87,67,30.09,30.01,13,2,17,0.03
2014-12-5,77.9,71.8,67.4,72.8,68.2,66.0,99,89,74,30.13,30.05,12,1,13,0.38
2014-12-6,78.6,70.6,63.5,70.3,66.8,62.6,100,89,65,30.11,29.98,3,0,8,0.03
2014-12-7,70.9,65.0,58.7,65.8,61.8,56.5,100,90,70,30.00,29.92,12,1,15,0.01
2014-12-8,67.8,65.0,60.2,67.2,64.6,60.1,100,99,96,29.98,29.89,7,0,11,0.58
2014-12-9,66.3,57.6,50.5,59.8,51.1,44.8,100,81,51,29.96,29.86,11,2,16,0.08
2014-12-10,64.0,51.7,42.6,45.2,41.5,36.0,96,72,36,30.04,29.93,12,1,12,0.00
2014-12-11,64.7,50.6,38.8,47.7,43.3,37.7,100,79,47,30.09,29.98,9,1,16,0.00
2014-12-12,60.4,52.2,46.1,49.3,46.2,43.6,94,81,58,30.14,30.04,6,0,7,0.01
2014-12-13,67.8,54.6,43.6,51.7,46.4,41.7,95,76,50,30.07,29.96,9,1,12,0.00
2014-12-14,72.7,53.2,39.3,47.2,40.8,34.3,100,71,25,30.00,29.90,5,0,9,0.01
2014-12-15,73.0,54.0,39.8,50.0,43.3,35.4,100,73,26,30.02,29.93,6,0,7,0.00
2014-12-16,75.4,56.7,42.2,51.9,44.6,36.5,100,71,25,30.09,29.99,11,1,13,0.00
2014-12-17,75.6,62.3,52.5,59.7,55.9,47.8,99,82,53,30.08,29.95,9,1,12,0.00
2014-12-18,70.4,56.6,44.6,54.7,49.0,43.4,98,79,44,30.06,29.96,4,0,7,0.01
2014-12-19,72.3,56.9,47.6,53.9,49.9,46.8,100,81,42,30.03,29.93,5,0,8,0.00
2014-12-20,76.8,63.9,53.2,63.6,58.4,52.0,100,84,56,30.00,29.91,6,0,11,0.00
2014-12-21,80.3,69.3,60.1,66.8,63.1,58.7,99,82,55,30.00,29.88,6,0,12,0.01
2014-12-22,81.4,71.7,64.0,67.6,65.4,62.8,100,82,56,29.95,29.79,15,1,18,0.08
2014-12-23,80.9,72.6,66.3,72.4,68.5,65.2,100,88,68,29.87,29.77,7,0,14,0.00
2014-12-24,83.4,75.7,71.8,73.3,70.8,69.4,95,85,65,29.83,29.73,18,4,29,0.18
2014-12-25,67.9,62.6,56.2,64.8,55.0,46.4,94,77,51,30.11,29.84,13,1,19,0.00
2014-12-26,70.8,63.4,54.7,65.0,58.3,49.2,92,84,73,30.12,30.05,7,0,7,0.00
2014-12-27,78.3,69.8,64.2,74.0,66.6,61.9,98,90,75,30.14,30.03,3,0,6,0.00
2014-12-28,82.8,72.8,64.7,71.4,67.1,62.0,100,85,53,30.07,29.96,14,1,14,0.00
2014-12-29,82.8,72.5,64.5,70.4,67.3,63.9,100,85,61,30.02,29.92,10,1,17,0.01
2014-12-30,79.6,69.2,62.7,69.5,65.3,61.9,100,88,62,30.11,29.97,10,1,16,0.01
2014-12-31,71.3,68.6,67.1,68.7,67.1,65.0,100,95,86,30.15,30.04,10,2,12,0.07
2015-1-1,74.6,69.5,63.7,73.1,68.1,63.6,100,96,83,30.13,30.02,10,1,13,0.25
2015-1-2,75.1,69.5,65.8,70.3,68.5,65.7,100,97,84,30.16,30.07,8,0,8,0.00